Location: ??? ???
(33.4974°N, 35.4618°E)
Time: 02:13:35
(UTC+00:00)

Cosmos 1417 Rocket - Pass Details

Date: 29 October 2020
Orbit: 952 x 998 km, 83.0° (Epoch: 25 November)

Event Time Altitude Azimuth Distance (km) Brightness Sun altitude
Rises 15:34:36 0° 177° (S) 3,646 7.6 -10.1°
Reaches altitude 10° 15:37:06 10° 175° (S) 2,709 6.9 -10.7°
Maximum altitude 15:43:16 69° 93° (E) 1,045 4.5 -11.9°
Drops below altitude 10° 15:49:32 10° 11° (NNE) 2,755 6.7 -13.2°
Sets 15:52:04 0° 10° (N) 3,712 7.4 -13.8°
